Wind_Speed
17 16 16 15 14 12 11 10 9 8 8 7 8 8 9 10 10 9 6 6 6 8 10 7 6 8 10 15 16 14 12 17 23 21 15 16 14 16 13 14 16 10 13 15 18
18 18 17 16 14 12 11 10 9 9 9 8 8 8 9 10 7 5 3 1 1 2 3 6 9 10 14 15 12 15 15 24 20 18 11 18 19 14 11 19 21 20 16 12 19
19 19 18 16 15 13 11 10 10 9 9 8 8 7 8 8 2 3 6 6 7 7 2 5 8 11 15 14 19 15 21 18 22 16 15 17 12 12 15 19 22 20 15 21 20
22 19 18 16 15 13 11 10 10 9 8 8 6 6 6 2 1 3 6 5 5 6 3 4 7 12 13 12 18 14 15 21 14 18 14 17 16 14 19 24 17 24 24 25 20
21 21 19 17 14 13 11 11 10 8 7 6 4 4 4 4 3 5 5 4 3 3 2 2 5 6 11 11 8 16 15 11 17 17 18 17 20 17 20 8 15 22 21 21 23
21 21 18 15 14 12 11 10 8 6 6 4 2 2 2 7 5 7 6 3 2 1 2 2 1 3 4 8 11 2 12 13 15 17 17 18 21 19 17 13 18 19 18 19 17
22 20 15 13 12 11 10 8 5 4 4 3 2 3 6 4 8 9 6 5 4 3 2 2 3 6 1 5 6 8 12 15 16 18 17 13 20 20 16 11 16 21 21 17 10
23 18 13 11 10 8 6 4 2 1 3 3 2 1 5 5 11 9 6 5 5 5 5 5 5 7 8 2 6 9 8 14 10 7 13 9 15 5 6 4 8 10 12 12 11
22 15 10 8 5 5 4 5 2 2 2 1 1 2 2 3 8 7 7 4 2 4 5 5 6 8 6 11 9 10 12 10 9 6 3 10 9 9 7 5 7 10 14 10 10
21 13 7 4 3 3 4 6 6 3 2 1 2 5 3 6 6 6 5 6 4 3 4 8 8 9 9 9 10 8 9 7 9 8 9 11 13 12 12 13 14 14 14 13 14
19 12 4 2 3 5 3 4 2 2 4 6 3 5 2 2 6 7 7 6 7 8 10 9 10 12 10 6 6 6 8 9 5 4 10 12 13 15 15 19 18 18 17 16 16
17 11 4 4 4 6 7 3 5 5 6 5 7 9 9 3 6 10 8 8 9 10 4 9 13 8 3 6 8 9 10 11 7 6 9 13 17 16 17 16 21 19 19 16 14
17 10 4 5 5 5 5 5 8 6 6 2 2 2 5 8 5 7 11 12 10 8 7 10 5 6 8 9 10 11 11 8 9 10 15 13 19 9 6 7 7 10 10 11 11
15 10 5 6 3 1 1 9 10 4 5 6 5 4 6 5 6 5 9 11 8 9 5 7 6 7 9 9 9 12 5 6 8 10 8 1 5 9 9 6 6 5 3 5 9
15 9 6 3 3 2 7 10 3 1 4 4 5 4 4 8 6 7 6 10 13 9 6 1 8 10 10 7 5 8 2 8 11 13 13 16 7 4 6 7 11 3 2 3 1
11 9 6 3 3 6 9 3 1 5 3 5 3 3 6 9 7 3 7 9 7 13 13 15 10 9 11 6 9 1 10 12 13 10 11 10 6 6 8 7 5 4 5 2 1
6 4 4 4 4 9 3 2 5 5 3 3 4 4 7 9 8 7 9 11 12 12 16 17 15 12 9 11 8 10 10 8 8 8 6 5 5 8 5 2 6 8 8 7 6
4 4 6 5 6 7 1 5 6 2 3 1 6 10 12 6 12 7 11 14 13 14 15 15 11 14 10 13 11 8 8 8 6 7 7 4 6 7 7 5 6 6 8 11 10
7 8 4 6 8 4 6 7 3 1 3 5 11 12 9 7 6 6 13 12 8 5 13 8 15 7 6 5 6 4 10 5 8 15 12 10 7 10 12 6 4 8 8 10 7
6 4 6 6 7 1 5 5 4 2 4 6 10 6 9 6 6 5 6 2 4 5 5 4 12 5 6 4 9 14 5 5 8 7 12 8 10 8 13 1 4 4 5 7 13
2 4 5 7 6 6 5 3 5 5 6 6 8 12 12 12 11 11 5 2 5 5 7 7 9 10 8 12 16 9 13 9 8 10 11 12 5 7 2 6 3 4 9 19 24
4 3 4 7 6 2 4 2 4 10 9 9 7 11 13 11 12 12 9 6 1 8 8 2 5 11 14 13 5 12 13 12 10 10 8 10 15 7 5 2 6 16 17 17 21
8 3 5 4 3 4 3 8 5 8 6 5 6 4 4 10 7 6 7 4 3 6 4 2 6 8 10 9 6 11 16 16 15 13 15 11 11 4 6 13 23 23 19 19 21
7 3 1 5 4 4 6 4 4 3 10 7 9 7 9 11 9 7 6 2 2 3 5 5 12 13 12 12 2 6 10 10 12 10 15 20 27 20 20 19 18 21 22 23 23
7 3 2 5 2 8 4 4 8 5 3 7 5 4 7 8 10 12 10 9 7 10 13 10 17 17 18 18 17 18 19 19 18 21 22 22 27 23 22 22 23 26 24 28 25
6 6 3 8 5 6 1 1 7 5 4 6 10 8 7 12 13 17 15 14 12 9 10 7 6 8 12 15 17 19 21 21 22 22 23 24 26 24 25 20 23 21 25 27 33
7 5 3 1 2 5 2 3 5 8 8 9 8 9 13 12 13 16 15 13 11 9 5 4 4 4 9 6 9 13 18 14 18 20 16 19 20 20 21 21 20 24 28 35 38
Wind_Direction
350 350 345 340 335 331 329 323 318 310 301 295 295 299 305 311 309 304 286 258 277 244 238 238 234 218 213 221 219 228 235 239 240 240 250 228 212 213 240 260 289 293 297 313 327
342 340 340 338 332 325 322 318 316 304 294 293 297 304 312 323 319 267 253 280 289 208 212 221 215 206 211 217 212 217 228 241 244 250 247 237 226 209 217 248 261 284 289 300 323
336 332 333 333 329 320 314 312 312 298 286 286 297 311 321 331 257 114 123 96 77 71 151 200 206 211 225 220 215 224 243 245 245 239 247 258 232 239 216 252 261 287 296 302 307
333 330 328 326 325 318 307 303 305 294 280 281 297 310 321 318 331 152 142 103 75 77 111 148 194 210 223 215 224 246 240 253 258 238 241 242 248 252 256 259 267 279 285 293 291
336 332 329 323 321 317 308 302 300 288 273 271 285 307 328 248 218 182 155 118 69 101 166 147 201 220 228 228 216 238 247 232 240 248 245 251 250 262 271 262 271 283 284 284 287
340 332 329 322 320 316 309 305 293 269 259 254 257 301 305 247 207 188 172 154 191 177 185 204 250 249 255 241 227 245 252 235 234 241 244 254 258 249 253 242 247 258 288 287 287
344 337 332 325 321 316 311 312 300 259 248 236 250 305 261 253 176 178 190 200 224 219 246 240 249 243 227 221 235 245 250 234 234 241 246 262 257 240 251 251 259 264 267 270 268
343 341 335 332 327 324 326 325 307 248 240 245 260 355 260 229 185 189 207 227 238 237 248 255 237 263 248 245 221 239 241 242 196 220 222 224 254 113 170 220 228 256 248 255 258
347 344 342 340 343 346 12 23 30 185 173 255 355 237 173 207 184 193 198 199 209 236 241 234 227 254 211 232 226 206 256 215 152 211 206 222 256 149 213 264 274 262 255 260 269
351 349 350 360 31 32 49 51 62 83 94 16 248 244 209 159 185 193 216 206 235 217 213 208 227 234 222 229 246 223 231 215 250 166 241 248 251 240 246 249 260 272 274 267 268
358 355 8 99 80 49 27 1 329 195 260 276 312 294 202 218 199 198 193 211 216 236 250 202 250 225 242 242 309 275 261 259 240 277 271 260 266 267 257 257 247 253 258 270 263
4 6 31 133 109 71 63 43 34 315 302 259 261 256 247 244 209 203 201 220 210 244 211 231 235 255 236 227 238 242 248 252 277 263 288 277 282 277 264 255 243 241 241 242 256
10 13 35 146 128 92 79 30 347 335 258 167 238 228 190 201 219 212 222 226 239 239 234 273 15 159 221 217 238 234 262 281 281 313 273 276 266 218 206 229 196 208 218 248 266
12 17 56 139 111 100 14 337 334 319 264 137 175 146 180 213 242 220 221 219 222 259 207 255 135 211 225 249 243 264 185 271 277 281 288 53 285 191 202 187 176 145 218 258 258
22 38 96 82 132 346 308 325 335 294 265 123 129 141 185 231 346 171 208 215 249 223 239 237 202 216 243 271 227 284 269 269 286 278 279 252 237 207 186 195 162 61 27 337 184
24 59 69 69 16 321 319 325 238 231 242 166 179 213 244 217 236 260 224 225 266 263 233 263 273 283 284 292 242 306 252 254 252 258 247 232 242 214 175 215 152 302 307 267 255
348 16 6 350 303 325 327 209 237 259 102 171 229 241 270 259 245 239 250 230 239 237 240 233 231 241 261 238 207 236 257 272 238 203 244 98 259 269 138 177 290 310 300 251 231
298 337 340 335 334 338 269 231 255 55 258 48 279 279 264 277 250 270 263 257 220 264 266 270 240 207 194 234 286 236 296 282 282 278 297 203 249 128 103 285 283 265 283 261 258
287 281 295 331 338 332 244 241 295 328 348 295 292 264 253 223 275 265 266 274 287 240 258 271 254 137 207 222 275 250 237 326 298 263 259 249 223 227 206 203 202 273 304 270 256
313 257 240 320 342 292 246 270 282 244 299 264 280 265 275 244 262 248 286 100 244 251 285 296 275 214 160 240 256 262 329 229 213 263 258 247 255 252 188 293 332 299 296 300 293
20 261 250 334 335 239 256 301 287 268 283 270 276 270 276 280 280 284 274 240 239 235 278 293 255 257 226 221 242 213 230 229 299 278 273 284 275 73 324 298 315 289 304 302 293
4 265 290 331 245 238 270 338 346 277 262 269 275 273 281 287 282 277 270 268 35 282 258 251 294 270 268 275 260 282 271 229 236 228 234 277 277 353 308 296 273 287 308 304 300
344 304 317 357 302 317 315 280 269 283 273 285 278 262 306 286 289 267 290 43 285 253 333 347 237 267 239 188 218 238 234 241 254 262 257 257 250 155 219 257 302 302 291 299 302
336 312 15 47 33 328 335 292 272 274 283 292 285 275 277 268 255 275 267 193 257 274 10 319 265 263 273 310 247 245 256 250 250 248 251 250 275 276 288 295 301 291 292 302 295
357 39 356 315 14 332 309 305 300 303 277 286 223 283 300 290 281 267 263 272 241 253 267 249 261 268 267 274 278 274 270 265 246 242 250 266 273 287 294 300 299 295 294 291 290
349 341 297 293 292 292 68 301 310 316 282 277 280 312 293 282 290 293 296 294 287 267 255 234 263 282 285 266 258 263 262 260 256 255 258 268 273 275 278 311 299 297 291 294 294
353 329 296 306 271 292 355 343 316 311 279 269 289 302 292 297 303 290 282 272 263 271 271 328 268 329 283 296 298 270 261 263 257 249 254 271 290 313 301 311 319 304 298 294 293
Height
1517 1514 1511 1509 1506 1504 1503 1501 1500 1499 1498 1497 1496 1496 1495 1494 1493 1491 1491 1491 1489 1488 1490 1492 1493 1495 1496 1497 1497 1497 1491 1484 1479 1479 1480 1483 1490 1489 1493 1495 1495 1495 1495 1494 1493
1516 1513 1510 1507 1504 1502 1500 1499 1498 1497 1496 1495 1494 1494 1493 1492 1490 1490 1491 1489 1488 1488 1490 1492 1493 1494 1493 1492 1493 1489 1482 1475 1472 1472 1476 1478 1484 1486 1488 1490 1490 1492 1493 1494 1493
1514 1511 1507 1504 1502 1499 1498 1496 1495 1494 1493 1493 1493 1493 1492 1491 1491 1490 1489 1489 1489 1488 1489 1490 1491 1492 1489 1488 1487 1483 1476 1471 1471 1474 1481 1479 1482 1485 1479 1483 1487 1490 1493 1493 1492
1511 1508 1505 1502 1499 1497 1495 1493 1492 1491 1491 1491 1491 1491 1491 1490 1485 1489 1489 1489 1489 1489 1491 1491 1491 1489 1485 1483 1482 1482 1478 1478 1474 1478 1484 1482 1481 1478 1481 1478 1485 1489 1491 1491 1490
1509 1505 1503 1499 1496 1494 1492 1491 1489 1488 1488 1489 1489 1489 1490 1491 1489 1488 1488 1489 1489 1490 1491 1490 1488 1486 1483 1481 1483 1483 1475 1481 1481 1480 1483 1482 1480 1479 1480 1477 1485 1486 1487 1487 1487
1505 1502 1499 1496 1494 1491 1489 1488 1487 1486 1487 1487 1488 1488 1489 1488 1486 1487 1488 1489 1490 1491 1490 1489 1488 1487 1484 1482 1482 1477 1478 1479 1479 1479 1479 1478 1475 1477 1476 1478 1479 1479 1482 1484 1483
1503 1499 1496 1494 1492 1489 1487 1486 1485 1485 1485 1486 1486 1487 1488 1486 1485 1486 1487 1489 1490 1491 1490 1490 1489 1488 1485 1481 1482 1482 1482 1476 1474 1474 1474 1477 1474 1469 1473 1476 1474 1474 1478 1481 1481
1500 1496 1494 1492 1490 1488 1486 1485 1484 1485 1485 1486 1486 1486 1485 1483 1484 1485 1487 1488 1489 1489 1490 1489 1489 1486 1484 1483 1481 1478 1477 1469 1461 1470 1472 1479 1463 1465 1474 1473 1474 1474 1475 1476 1476
1498 1494 1492 1491 1490 1488 1487 1485 1484 1485 1485 1486 1487 1487 1482 1482 1484 1485 1487 1487 1488 1488 1488 1487 1487 1484 1483 1478 1473 1471 1462 1465 1463 1470 1468 1470 1458 1462 1471 1470 1470 1472 1469 1469 1471
1496 1493 1490 1490 1489 1489 1488 1487 1486 1486 1486 1486 1486 1490 1483 1481 1483 1483 1485 1486 1486 1486 1486 1486 1483 1478 1474 1471 1465 1457 1465 1467 1464 1464 1467 1465 1463 1462 1465 1465 1466 1464 1463 1461 1465
1494 1491 1490 1489 1490 1489 1489 1488 1491 1490 1487 1484 1484 1482 1482 1482 1482 1483 1484 1485 1485 1484 1479 1480 1476 1470 1462 1466 1468 1468 1469 1467 1463 1465 1469 1461 1457 1457 1458 1458 1457 1458 1458 1457 1460
1493 1491 1490 1490 1490 1490 1489 1491 1492 1492 1486 1482 1481 1481 1481 1482 1481 1482 1483 1483 1481 1476 1478 1478 1473 1465 1471 1472 1473 1470 1468 1465 1465 1466 1469 1461 1456 1453 1451 1449 1449 1449 1453 1456 1460
1494 1491 1490 1491 1492 1491 1492 1491 1490 1488 1485 1480 1479 1479 1480 1482 1479 1478 1480 1478 1477 1474 1472 1472 1465 1468 1473 1471 1472 1467 1467 1464 1469 1466 1463 1459 1447 1441 1444 1445 1445 1449 1453 1456 1458
1493 1492 1491 1492 1495 1492 1493 1490 1489 1488 1476 1475 1474 1477 1479 1478 1477 1476 1476 1478 1474 1471 1470 1467 1469 1471 1469 1469 1468 1465 1462 1468 1470 1468 1458 1457 1448 1438 1439 1442 1444 1448 1450 1452 1454
1494 1492 1492 1493 1494 1495 1493 1489 1488 1489 1476 1474 1474 1475 1475 1475 1473 1471 1474 1474 1471 1468 1473 1464 1467 1469 1468 1464 1466 1463 1467 1467 1466 1463 1459 1451 1456 1424 1433 1438 1440 1443 1445 1447 1450
1497 1494 1493 1494 1493 1493 1490 1489 1489 1482 1476 1470 1472 1471 1470 1469 1469 1469 1471 1472 1469 1466 1466 1466 1465 1468 1464 1463 1465 1466 1466 1461 1457 1456 1453 1435 1444 1419 1429 1433 1435 1440 1444 1446 1446
1497 1494 1493 1492 1494 1490 1489 1490 1481 1474 1471 1470 1468 1470 1467 1466 1464 1465 1463 1463 1464 1465 1461 1456 1462 1463 1467 1464 1466 1465 1462 1455 1447 1446 1438 1443 1451 1429 1431 1436 1438 1439 1441 1441 1443
1496 1494 1492 1491 1490 1488 1489 1485 1482 1469 1469 1470 1471 1468 1466 1461 1460 1463 1463 1459 1457 1461 1459 1462 1462 1459 1459 1461 1457 1455 1459 1458 1463 1443 1431 1434 1440 1427 1433 1438 1439 1441 1440 1441 1441
1493 1493 1492 1490 1488 1487 1488 1478 1469 1472 1474 1473 1469 1465 1459 1464 1468 1463 1459 1458 1454 1458 1460 1456 1456 1457 1459 1460 1463 1457 1462 1455 1463 1456 1451 1432 1423 1425 1428 1433 1437 1437 1438 1437 1440
1492 1491 1491 1488 1486 1486 1482 1479 1475 1477 1477 1474 1472 1465 1462 1458 1465 1460 1458 1458 1459 1463 1462 1455 1462 1458 1457 1463 1463 1462 1455 1462 1459 1465 1445 1420 1420 1418 1422 1428 1432 1434 1436 1436 1437
1490 1490 1488 1487 1485 1484 1478 1471 1476 1477 1478 1475 1469 1466 1464 1464 1462 1461 1459 1459 1462 1459 1463 1459 1460 1456 1461 1457 1456 1463 1455 1459 1457 1448 1446 1433 1414 1417 1425 1427 1432 1434 1434 1434 1433
1491 1486 1488 1487 1484 1482 1476 1479 1482 1477 1476 1474 1472 1467 1465 1464 1463 1460 1460 1460 1465 1463 1462 1462 1459 1457 1451 1447 1450 1450 1446 1446 1456 1455 1451 1449 1433 1415 1422 1426 1431 1430 1431 1432 1429
1492 1490 1487 1486 1481 1477 1480 1480 1480 1477 1475 1472 1470 1469 1468 1467 1469 1460 1461 1467 1468 1465 1464 1466 1461 1456 1445 1447 1450 1451 1447 1448 1445 1449 1449 1447 1418 1415 1421 1422 1422 1423 1425 1426 1425
1494 1485 1487 1487 1490 1487 1483 1478 1478 1479 1477 1477 1473 1472 1469 1466 1464 1465 1463 1467 1471 1469 1473 1473 1463 1458 1451 1434 1449 1454 1447 1445 1448 1455 1441 1425 1410 1413 1413 1414 1415 1415 1416 1418 1420
1498 1495 1496 1484 1484 1489 1488 1482 1479 1478 1478 1476 1471 1474 1473 1470 1463 1462 1462 1463 1467 1468 1469 1467 1461 1453 1447 1444 1444 1444 1443 1440 1443 1445 1441 1425 1413 1411 1410 1409 1410 1411 1411 1410 1409
1502 1500 1496 1491 1492 1488 1486 1478 1481 1481 1483 1473 1474 1471 1474 1472 1469 1466 1464 1465 1466 1464 1464 1464 1462 1455 1453 1447 1445 1440 1433 1429 1425 1422 1418 1416 1411 1407 1404 1404 1405 1408 1409 1405 1404
1501 1500 1499 1490 1486 1485 1481 1482 1483 1487 1481 1479 1477 1476 1473 1470 1471 1469 1468 1468 1468 1469 1465 1467 1460 1458 1447 1437 1439 1431 1413 1411 1409 1409 1410 1408 1399 1399 1398 1401 1406 1405 1403 1401 1395